"startDT [UTC]","vpos","CH4 [ppm]","stdev(CH4) [ppm]","CO2 [ppm]","stdev(CO2) [ppm]","H2O [ppm]","stdev(H2O)","p_LGR [torr]","T_LGR [C]","mt1_LGR [us]","mt2_LGR [us]","T_ECpre [C]","T_EC1 [C]","T_EC2 [C]","p_inlet [hPa]","p_in [hPa]","p_out [hPa]","T_inlet [C]","RH_inlet [%]","dwpt_inlet [C]","T_vent [C]","RH_vent [%]","dwpt_vent [C]","flow_vent [l min-1]","flow_inlet [l min-1]","dwpt_sample [C]","T_room [C]"
2012-03-31 00:00:00,0.0,1.8981,0.0010,400.54,0.32,0.6,6.1,138.13,28.83,24.62,36.33,0.04,-272.74,-272.74,-54,556,-942,23.8,1.7,-30.1,23.8,1.8,-29.6,5.73,2.28,-29.6,27.0
2012-03-31 00:01:00,0.0,1.8977,0.0010,400.69,0.20,2.5,12.9,138.12,28.82,24.62,36.33,0.04,-272.74,-272.74,-54,557,-942,23.8,1.7,-30.0,23.8,1.8,-29.7,5.73,2.50,-29.6,27.5
2012-03-31 00:02:00,0.0,1.8977,0.0009,400.72,0.21,1.0,6.5,138.11,28.83,24.62,36.33,0.04,-272.74,-272.74,-54,556,-942,23.9,1.7,-30.1,23.9,1.8,-29.7,5.73,2.31,-29.4,27.8
2012-03-31 00:03:00,0.0,1.8987,0.0014,400.73,0.19,9.7,18.8,138.11,28.84,24.61,36.33,0.04,-272.74,-272.74,-54,556,-942,23.9,1.7,-30.2,23.9,1.7,-29.8,5.73,2.50,-29.3,28.1
2012-03-31 00:04:00,0.0,1.8991,0.0009,400.90,0.19,9.4,21.8,138.10,28.86,24.61,36.32,0.04,-272.74,-272.74,-54,556,-942,23.9,1.7,-30.3,23.9,1.7,-29.8,5.73,2.29,-29.2,28.3
2012-03-31 00:05:00,0.0,1.8982,0.0011,400.89,0.23,10.7,21.7,138.09,28.88,24.62,36.33,0.04,-272.74,-272.74,-54,556,-942,24.0,1.6,-30.3,24.0,1.7,-29.8,5.73,2.51,-29.1,28.4
2012-03-31 00:06:00,0.0,1.8982,0.0011,400.86,0.25,15.5,25.2,138.09,28.90,24.62,36.34,0.04,-272.74,-272.74,-53,556,-942,24.0,1.6,-30.4,24.0,1.7,-29.9,5.73,2.30,-29.0,28.6
2012-03-31 00:07:00,0.0,1.8996,0.0010,401.13,0.24,14.2,21.4,138.08,28.93,24.62,36.33,0.04,-272.74,-272.74,-54,556,-942,24.1,1.6,-30.3,24.1,1.7,-29.8,5.73,2.51,-28.9,28.7
2012-03-31 00:08:00,0.0,1.9004,0.0011,400.90,0.22,10.8,24.8,138.08,28.95,24.62,36.34,0.04,-272.74,-272.74,-53,556,-942,24.1,1.6,-30.2,24.1,1.7,-29.7,5.73,2.28,-28.8,28.7
2012-03-31 00:09:00,0.0,1.9001,0.0010,401.06,0.21,19.0,25.5,138.08,28.98,24.62,36.34,0.04,-272.74,-272.74,-54,556,-942,24.1,1.7,-30.2,24.1,1.7,-29.7,5.73,2.46,-28.7,28.2
2012-03-31 00:10:00,0.0,1.9002,0.0010,401.01,0.20,20.6,28.2,138.08,29.00,24.62,36.34,0.04,-272.74,-272.74,-54,557,-942,24.2,1.7,-29.9,24.1,1.8,-29.5,5.73,2.47,-28.7,27.8
2012-03-31 00:11:00,0.0,1.9003,0.0011,401.08,0.24,19.7,25.4,138.08,29.02,24.62,36.34,0.04,-272.74,-272.74,-54,557,-942,24.2,1.7,-29.9,24.2,1.8,-29.4,5.73,2.38,-28.7,27.6
2012-03-31 00:12:00,0.0,1.9000,0.0010,401.08,0.22,14.9,23.7,138.09,29.04,24.62,36.34,0.04,-272.73,-272.74,-54,557,-942,24.2,1.7,-29.8,24.2,1.8,-29.4,5.73,2.33,-28.8,27.5
2012-03-31 00:13:00,0.0,1.9004,0.0010,401.14,0.19,14.6,23.5,138.09,29.04,24.62,36.33,0.04,-272.74,-272.74,-54,558,-942,24.2,1.7,-29.7,24.2,1.8,-29.2,5.73,2.37,-28.8,27.4
2012-03-31 00:14:00,0.0,1.9003,0.0014,401.01,0.17,15.8,25.7,138.09,29.05,24.62,36.34,0.04,-272.74,-272.74,-54,558,-942,24.2,1.7,-29.6,24.1,1.8,-29.1,5.73,2.46,-28.8,27.2
2012-03-31 00:15:00,0.0,1.9002,0.0010,401.07,0.21,13.5,21.0,138.10,29.05,24.62,36.34,0.04,-272.74,-272.74,-54,558,-942,24.2,1.8,-29.4,24.2,1.9,-29.0,5.73,2.48,-28.9,27.0
2012-03-31 00:16:00,0.0,1.9000,0.0011,401.02,0.19,8.8,19.8,138.10,29.05,24.62,36.34,0.04,-272.74,-272.74,-54,558,-942,24.2,1.8,-29.3,24.1,1.9,-28.9,5.73,2.41,-28.9,27.0
2012-03-31 00:17:00,0.0,1.9000,0.0011,400.91,0.20,11.9,17.3,138.10,29.05,24.62,36.34,0.04,-272.74,-272.74,-54,558,-942,24.2,1.8,-29.2,24.1,1.9,-28.9,5.73,2.33,-29.0,27.0
2012-03-31 00:18:00,0.0,1.8997,0.0010,400.99,0.18,10.9,17.6,138.11,29.05,24.62,36.33,0.04,-272.74,-272.74,-54,558,-943,24.2,1.8,-29.1,24.1,1.9,-28.7,5.73,2.34,-29.0,27.0
2012-03-31 00:19:00,0.0,1.9000,0.0010,400.98,0.22,6.9,16.7,138.11,29.04,24.62,36.34,0.04,-272.74,-272.74,-54,558,-943,24.2,1.8,-29.0,24.1,1.9,-28.8,5.73,2.43,-29.0,27.0
2012-03-31 00:20:00,0.0,1.8995,0.0010,400.96,0.24,7.0,16.8,138.11,29.04,24.62,36.34,0.04,-272.74,-272.74,-54,559,-943,24.2,1.8,-29.1,24.1,1.9,-28.7,5.73,2.49,-29.1,27.0
2012-03-31 00:21:00,0.0,1.8993,0.0010,401.01,0.17,5.7,12.9,138.11,29.03,24.62,36.33,0.04,-272.74,-272.74,-54,558,-943,24.2,1.9,-28.9,24.1,1.9,-28.5,5.73,2.43,-29.1,26.9
2012-03-31 00:22:00,0.0,1.8996,0.0010,400.91,0.21,4.6,11.1,138.11,29.02,24.62,36.34,0.04,-272.74,-272.74,-54,558,-943,24.1,1.9,-28.8,24.1,1.9,-28.5,5.73,2.34,-29.1,26.8
2012-03-31 00:23:00,0.0,1.8989,0.0011,400.90,0.20,9.7,21.1,138.11,29.02,24.62,36.33,0.04,-272.74,-272.74,-54,558,-942,24.1,1.9,-28.7,24.1,2.0,-28.3,5.73,2.33,-29.1,26.8
2012-03-31 00:24:00,0.0,1.8990,0.0010,400.97,0.26,3.8,10.5,138.11,29.01,24.62,36.33,0.04,-272.74,-272.74,-54,558,-942,24.1,1.9,-28.6,24.1,2.0,-28.3,5.73,2.42,-29.2,26.7
2012-03-31 00:25:00,0.0,1.8989,0.0010,400.94,0.25,3.0,10.1,138.12,29.00,24.62,36.33,0.04,-272.74,-272.74,-54,558,-943,24.1,1.9,-28.4,24.1,2.0,-28.2,5.73,2.49,-29.2,26.8
2012-03-31 00:26:00,0.0,1.8992,0.0012,400.85,0.25,5.7,16.7,138.12,28.99,24.62,36.33,0.04,-272.74,-272.74,-54,558,-943,24.1,1.9,-28.5,24.1,2.0,-28.1,5.73,2.43,-29.2,26.7
2012-03-31 00:27:00,0.0,1.8992,0.0010,400.88,0.22,4.7,14.8,138.12,28.99,24.62,36.33,0.04,-272.74,-272.74,-54,558,-942,24.1,1.9,-28.6,24.0,2.0,-28.2,5.73,2.33,-29.2,26.7
2012-03-31 00:28:00,0.0,1.8990,0.0011,400.78,0.20,3.8,13.7,138.12,28.98,24.62,36.34,0.04,-272.74,-272.74,-54,558,-942,24.1,1.9,-28.6,24.0,2.0,-28.3,5.73,2.33,-29.2,26.6
2012-03-31 00:29:00,0.0,1.8989,0.0013,400.89,0.19,3.2,12.7,138.12,28.97,24.62,36.33,0.04,-272.74,-272.74,-54,558,-942,24.1,1.9,-28.7,24.0,2.0,-28.4,5.73,2.44,-29.2,26.6
2012-03-31 00:30:00,0.0,1.8988,0.0011,400.83,0.25,3.8,13.1,138.12,28.97,24.62,36.33,0.04,-272.74,-272.74,-54,558,-943,24.1,1.9,-28.8,24.0,2.0,-28.4,5.73,2.49,-29.2,26.6
2012-03-31 00:31:00,0.0,1.8988,0.0011,400.82,0.19,2.2,11.0,138.12,28.96,24.62,36.34,0.04,-272.74,-272.74,-54,558,-942,24.1,1.9,-28.8,24.0,2.0,-28.5,5.73,2.41,-29.2,26.6
2012-03-31 00:32:00,0.0,1.8988,0.0012,400.83,0.21,6.6,14.3,138.12,28.95,24.62,36.33,0.04,-272.74,-272.74,-54,558,-942,24.1,1.9,-29.0,24.0,1.9,-28.5,5.73,2.32,-29.2,26.6
2012-03-31 00:33:00,0.0,1.8990,0.0011,400.85,0.23,3.2,12.3,138.12,28.94,24.62,36.33,0.04,-272.74,-272.74,-54,558,-943,24.1,1.9,-28.9,24.0,1.9,-28.5,5.73,2.35,-29.2,26.5
2012-03-31 00:34:00,0.0,1.8988,0.0010,400.83,0.20,5.5,15.9,138.12,28.94,24.62,36.33,0.04,-272.74,-272.74,-54,558,-943,24.0,1.9,-28.9,24.0,1.9,-28.5,5.73,2.45,-29.2,26.6
2012-03-31 00:35:00,0.0,1.8988,0.0010,400.71,0.19,2.9,10.0,138.12,28.93,24.62,36.33,0.04,-272.74,-272.74,-54,558,-942,24.0,1.9,-28.9,24.0,1.9,-28.5,5.73,2.48,-29.2,26.6
2012-03-31 00:36:00,0.0,1.8982,0.0011,400.80,0.19,3.1,11.3,138.12,28.92,24.62,36.33,0.04,-272.73,-272.74,-54,558,-943,24.0,1.9,-28.8,24.0,2.0,-28.5,5.73,2.38,-29.2,26.6
2012-03-31 00:37:00,0.0,1.8980,0.0012,400.68,0.24,4.0,12.8,138.12,28.91,24.62,36.33,0.04,-272.74,-272.74,-54,557,-942,24.0,1.9,-28.8,24.0,2.0,-28.5,5.73,2.31,-29.2,26.6
2012-03-31 00:38:00,0.0,1.8989,0.0009,400.71,0.23,5.6,17.9,138.13,28.91,24.62,36.33,0.04,-272.74,-272.74,-55,558,-942,24.0,1.9,-29.0,23.9,1.9,-28.5,5.73,2.40,-29.2,26.6
2012-03-31 00:39:00,0.0,1.8978,0.0010,400.70,0.20,2.5,9.1,138.12,28.90,24.62,36.33,0.04,-272.74,-272.74,-54,558,-942,24.0,1.9,-29.0,23.9,1.9,-28.7,5.73,2.49,-29.3,26.5
2012-03-31 00:40:00,0.0,1.8978,0.0010,400.69,0.23,5.7,16.0,138.13,28.89,24.62,36.33,0.04,-272.74,-272.74,-54,558,-942,24.0,1.8,-29.3,23.9,1.9,-28.9,5.73,2.43,-29.2,26.5
2012-03-31 00:41:00,0.0,1.8982,0.0010,400.89,0.20,1.1,9.4,138.12,28.88,24.62,36.33,0.04,-272.74,-272.74,-54,558,-942,24.0,1.8,-29.5,23.9,1.8,-29.1,5.73,2.31,-29.2,26.6
2012-03-31 00:42:00,0.0,1.8980,0.0010,400.78,0.20,3.2,16.1,138.13,28.88,24.62,36.33,0.04,-272.74,-272.74,-54,557,-942,24.0,1.7,-29.7,23.9,1.8,-29.3,5.73,2.35,-29.2,26.5
2012-03-31 00:43:00,0.0,1.8984,0.0011,400.90,0.23,1.7,8.5,138.12,28.87,24.61,36.33,0.04,-272.74,-272.74,-54,558,-942,24.0,1.7,-29.9,23.9,1.8,-29.6,5.73,2.49,-29.2,26.8
2012-03-31 00:44:00,0.0,1.8985,0.0008,400.89,0.28,4.7,15.7,138.12,28.87,24.62,36.33,0.04,-272.74,-272.74,-54,558,-942,24.0,1.7,-30.1,23.9,1.7,-29.7,5.73,2.40,-29.2,27.4
2012-03-31 00:45:00,0.0,1.8983,0.0011,400.85,0.17,4.9,13.7,138.11,28.87,24.61,36.33,0.04,-272.74,-272.74,-54,557,-942,24.0,1.6,-30.3,24.0,1.7,-29.8,5.73,2.36,-29.0,27.8
2012-03-31 00:46:00,0.0,1.8979,0.0010,400.97,0.19,4.8,11.8,138.11,28.88,24.61,36.33,0.04,-272.74,-272.74,-54,557,-942,24.1,1.6,-30.4,24.0,1.7,-30.1,5.73,2.43,-28.9,28.1
2012-03-31 00:47:00,0.0,1.8973,0.0010,400.89,0.20,14.2,22.6,138.10,28.90,24.62,36.33,0.04,-272.74,-272.74,-54,557,-942,24.1,1.6,-30.5,24.1,1.7,-30.1,5.73,2.38,-28.8,28.3
2012-03-31 00:48:00,0.0,1.8977,0.0010,400.80,0.19,11.6,21.1,138.09,28.92,24.62,36.34,0.04,-272.74,-272.74,-54,557,-942,24.1,1.6,-30.6,24.1,1.7,-30.0,5.73,2.40,-28.7,28.5
2012-03-31 00:49:00,0.0,1.8980,0.0009,400.90,0.18,17.7,29.6,138.09,28.94,24.62,36.33,0.04,-272.74,-272.74,-53,558,-942,24.1,1.6,-30.4,24.1,1.7,-30.0,5.73,2.40,-28.6,28.6
2012-03-31 00:50:00,0.0,1.8974,0.0011,400.83,0.23,26.1,29.7,138.08,28.97,24.62,36.34,0.04,-272.73,-272.74,-54,557,-941,24.2,1.6,-30.3,24.2,1.7,-29.9,5.73,2.41,-28.5,28.8
2012-03-31 00:51:00,0.0,1.8975,0.0010,400.81,0.18,19.5,27.4,138.08,29.00,24.62,36.34,0.04,-272.74,-272.74,-54,558,-942,24.3,1.6,-30.4,24.2,1.7,-30.0,5.73,2.36,-28.4,28.9
2012-03-31 00:52:00,0.0,1.8979,0.0010,400.94,0.24,30.8,33.0,138.08,29.03,24.62,36.34,0.04,-272.74,-272.74,-53,557,-942,24.3,1.6,-30.4,24.3,1.7,-29.9,5.73,2.49,-28.3,28.5
2012-03-31 00:53:00,0.0,1.8985,0.0010,401.01,0.22,28.7,29.8,138.08,29.05,24.62,36.34,0.04,-272.74,-272.74,-54,557,-942,24.3,1.6,-30.2,24.3,1.7,-29.8,5.73,2.31,-28.3,28.1
2012-03-31 00:54:00,0.0,1.8986,0.0012,401.06,0.19,29.5,29.3,138.08,29.07,24.62,36.34,0.04,-272.74,-272.74,-54,558,-942,24.3,1.6,-30.1,24.3,1.7,-29.6,5.73,2.36,-28.3,27.9
2012-03-31 00:55:00,0.0,1.8990,0.0011,401.08,0.22,27.9,33.1,138.09,29.09,24.62,36.34,0.04,-272.74,-272.74,-54,558,-942,24.3,1.6,-30.1,24.3,1.7,-29.6,5.73,2.46,-28.3,27.7
2012-03-31 00:56:00,0.0,1.8988,0.0011,401.01,0.21,31.0,32.8,138.09,29.09,24.62,36.35,0.04,-272.74,-272.74,-54,559,-942,24.3,1.6,-30.1,24.3,1.7,-29.5,5.73,2.48,-28.3,27.5
2012-03-31 00:57:00,0.0,1.8984,0.0009,401.00,0.24,21.3,26.8,138.09,29.10,24.62,36.34,0.04,-272.74,-272.74,-54,559,-942,24.3,1.7,-29.9,24.3,1.8,-29.4,5.73,2.41,-28.4,27.4
2012-03-31 00:58:00,0.0,1.8980,0.0012,401.04,0.20,21.2,26.6,138.10,29.11,24.62,36.34,0.04,-272.74,-272.74,-54,559,-943,24.3,1.7,-29.8,24.3,1.8,-29.3,5.73,2.32,-28.4,27.3
2012-03-31 00:59:00,0.0,1.8977,0.0009,401.06,0.23,19.0,22.6,138.10,29.11,24.62,36.34,0.04,-272.74,-272.73,-54,559,-943,24.3,1.7,-29.6,24.3,1.8,-29.2,5.73,2.36,-28.5,27.2
2012-03-31 01:00:00,0.0,1.8973,0.0009,401.06,0.22,23.3,30.2,138.10,29.11,24.62,36.35,0.04,-272.74,-272.74,-54,559,-943,24.3,1.7,-29.7,24.3,1.8,-29.1,5.73,2.47,-28.5,27.3
2012-03-31 01:01:00,0.0,1.8981,0.0010,401.15,0.24,25.4,28.7,138.10,29.11,24.62,36.34,0.04,-272.74,-272.74,-54,559,-943,24.3,1.7,-29.4,24.3,1.8,-29.0,5.73,2.47,-28.5,27.2
2012-03-31 01:02:00,0.0,1.8978,0.0011,401.14,0.23,18.8,26.6,138.10,29.11,24.62,36.34,0.04,-272.74,-272.74,-54,559,-942,24.3,1.8,-29.4,24.3,1.8,-28.9,5.73,2.35,-28.5,27.1
2012-03-31 01:03:00,0.0,1.8977,0.0011,401.11,0.21,18.7,22.4,138.10,29.10,24.62,36.34,0.04,-272.74,-272.74,-54,559,-942,24.3,1.8,-29.2,24.3,1.9,-28.9,5.73,2.32,-28.6,27.2
2012-03-31 01:04:00,0.0,1.8976,0.0013,401.14,0.23,22.5,32.0,138.11,29.10,24.62,36.34,0.04,-272.74,-272.74,-54,559,-942,24.3,1.8,-29.1,24.3,1.9,-28.7,5.73,2.44,-28.6,27.1
2012-03-31 01:05:00,0.0,1.8990,0.0012,401.17,0.23,13.7,25.5,138.11,29.09,24.62,36.34,0.04,-272.74,-272.74,-54,559,-942,24.3,1.8,-28.9,24.3,1.9,-28.6,5.73,2.49,-28.6,27.1
2012-03-31 01:06:00,0.0,1.8999,0.0009,401.08,0.22,19.7,26.5,138.11,29.09,24.62,36.34,0.04,-272.74,-272.74,-54,559,-943,24.3,1.9,-28.8,24.3,1.9,-28.4,5.73,2.36,-28.6,27.0
2012-03-31 01:07:00,0.0,1.9003,0.0012,401.03,0.28,19.5,27.6,138.11,29.08,24.62,36.33,0.04,-272.74,-272.74,-54,559,-942,24.3,1.9,-28.6,24.3,2.0,-28.3,5.73,2.31,-28.6,27.0
2012-03-31 01:08:00,0.0,1.9003,0.0012,401.03,0.23,10.8,19.3,138.11,29.08,24.62,36.33,0.04,-272.74,-272.74,-54,559,-943,24.3,1.9,-28.5,24.3,2.0,-28.2,5.73,2.44,-28.6,27.0
2012-03-31 01:09:00,0.0,1.8998,0.0011,400.99,0.23,12.0,19.5,138.11,29.07,24.62,36.34,0.04,-272.74,-272.74,-54,559,-942,24.3,1.9,-28.4,24.3,2.0,-28.0,5.73,2.49,-28.7,27.0
2012-03-31 01:10:00,0.0,1.9000,0.0011,400.99,0.21,17.6,26.4,138.11,29.07,24.62,36.34,0.04,-272.74,-272.74,-54,560,-943,24.3,1.9,-28.3,24.3,2.0,-27.9,5.73,2.35,-28.7,26.9
2012-03-31 01:11:00,0.0,1.8995,0.0012,400.92,0.19,9.1,16.6,138.11,29.06,24.62,36.34,0.04,-272.74,-272.74,-55,559,-943,24.3,2.0,-28.2,24.3,2.0,-27.8,5.73,2.31,-28.7,27.0
2012-03-31 01:12:00,0.0,1.8992,0.0009,400.94,0.20,14.2,21.7,138.11,29.06,24.62,36.34,0.04,-272.74,-272.74,-54,560,-942,24.3,2.0,-28.1,24.3,2.1,-27.8,5.73,2.46,-28.7,27.0
2012-03-31 01:13:00,0.0,1.8992,0.0008,400.90,0.25,11.0,19.1,138.12,29.05,24.62,36.34,0.04,-272.74,-272.74,-54,559,-942,24.3,2.0,-28.0,24.3,2.1,-27.7,5.73,2.47,-28.7,27.0
2012-03-31 01:14:00,0.0,1.8994,0.0011,400.99,0.26,7.8,17.5,138.12,29.05,24.62,36.33,0.04,-272.74,-272.74,-54,559,-943,24.3,2.0,-28.0,24.3,2.1,-27.6,5.73,2.31,-28.7,27.0
2012-03-31 01:15:00,0.0,1.9000,0.0013,400.97,0.19,10.8,18.6,138.12,29.04,24.62,36.33,0.04,-272.74,-272.74,-54,559,-942,24.3,2.0,-27.9,24.3,2.1,-27.5,5.73,2.35,-28.7,27.0
2012-03-31 01:16:00,0.0,1.9011,0.0013,400.96,0.22,13.3,21.6,138.11,29.04,24.62,36.33,0.04,-272.74,-272.74,-55,559,-942,24.3,2.1,-27.8,24.2,2.1,-27.5,5.73,2.50,-28.7,27.0
2012-03-31 01:17:00,0.0,1.9022,0.0009,400.95,0.21,12.1,19.9,138.12,29.03,24.62,36.34,0.04,-272.73,-272.74,-54,560,-943,24.3,2.0,-27.9,24.2,2.1,-27.5,5.73,2.40,-28.7,27.0
2012-03-31 01:18:00,0.0,1.9016,0.0011,401.06,0.18,11.5,22.4,138.12,29.03,24.62,36.34,0.04,-272.74,-272.74,-54,559,-942,24.3,2.0,-28.1,24.3,2.1,-27.7,5.73,2.30,-28.7,27.0
2012-03-31 01:19:00,0.0,1.9013,0.0013,401.05,0.21,13.7,23.3,138.12,29.03,24.62,36.34,0.26,-270.73,-272.60,-54,560,-943,24.3,1.9,-28.4,24.2,2.0,-28.0,5.42,2.52,-32.8,26.8
2012-03-31 01:20:00,0.0,1.9012,0.0012,401.07,0.22,12.8,26.2,138.12,29.02,24.62,36.34,0.04,-272.74,-272.74,-54,559,-942,24.3,1.9,-28.6,24.2,2.0,-28.2,5.73,2.50,-28.7,26.9
2012-03-31 01:21:00,0.0,1.9018,0.0013,400.95,0.21,11.4,21.2,138.12,29.02,24.62,36.34,0.04,-272.74,-272.74,-54,559,-943,24.3,1.9,-28.8,24.2,2.0,-28.3,5.73,2.35,-28.7,26.9
2012-03-31 01:22:00,0.0,1.9037,0.0010,400.99,0.23,12.6,19.0,138.12,29.02,24.62,36.33,0.04,-272.74,-272.74,-54,559,-942,24.3,1.9,-28.8,24.2,1.9,-28.4,5.73,2.31,-28.7,26.9
2012-03-31 01:23:00,0.0,1.9037,0.0012,401.02,0.23,9.6,17.1,138.12,29.01,24.62,36.33,0.04,-272.74,-272.74,-54,559,-942,24.3,1.9,-28.8,24.2,1.9,-28.4,5.73,2.47,-28.7,26.9
2012-03-31 01:24:00,0.0,1.9024,0.0013,401.04,0.28,5.9,12.4,138.12,29.01,24.62,36.33,0.04,-272.74,-272.74,-54,559,-943,24.3,1.9,-28.7,24.2,2.0,-28.4,5.73,2.46,-28.7,26.9
2012-03-31 01:25:00,0.0,1.9028,0.0010,400.91,0.23,9.7,20.0,138.12,29.01,24.62,36.33,0.04,-272.74,-272.74,-55,559,-943,24.3,1.9,-28.5,24.2,2.0,-28.2,5.73,2.31,-28.6,26.8
2012-03-31 01:26:00,0.0,1.9018,0.0011,400.98,0.23,6.6,15.4,138.12,29.01,24.62,36.33,0.04,-272.74,-272.74,-54,559,-942,24.3,1.9,-28.4,24.2,2.0,-28.1,5.73,2.35,-28.6,26.8
2012-03-31 01:27:00,0.0,1.9020,0.0010,400.94,0.25,12.4,19.1,138.12,29.00,24.62,36.33,0.04,-272.74,-272.74,-54,559,-942,24.3,2.0,-28.3,24.2,2.0,-27.9,5.73,2.49,-28.6,26.8
2012-03-31 01:28:00,0.0,1.9019,0.0010,400.91,0.18,13.1,22.6,138.12,29.00,24.62,36.34,0.04,-272.74,-272.74,-54,559,-942,24.3,2.0,-28.2,24.2,2.1,-27.8,5.73,2.42,-28.6,26.8
2012-03-31 01:29:00,0.0,1.9019,0.0010,400.99,0.20,10.7,20.1,138.12,29.00,24.62,36.34,0.04,-272.74,-272.74,-55,559,-942,24.3,2.0,-28.1,24.2,2.1,-27.7,5.73,2.29,-28.6,26.8
2012-03-31 01:30:00,0.0,1.9015,0.0009,401.00,0.22,15.6,19.9,138.12,29.00,24.62,36.33,0.04,-272.73,-272.74,-55,559,-943,24.3,2.0,-28.1,24.2,2.1,-27.7,5.73,2.40,-28.6,26.8
2012-03-31 01:31:00,0.0,1.9022,0.0013,401.03,0.21,8.7,18.2,138.12,29.00,24.62,36.33,0.04,-272.74,-272.74,-54,559,-942,24.3,2.0,-27.9,24.2,2.1,-27.7,5.73,2.50,-28.6,26.8
2012-03-31 01:32:00,0.0,1.9037,0.0012,401.01,0.22,10.6,20.3,138.12,28.99,24.62,36.33,0.04,-272.74,-272.74,-54,559,-942,24.3,2.0,-27.9,24.2,2.1,-27.7,5.73,2.37,-28.6,26.8
2012-03-31 01:33:00,0.0,1.9035,0.0013,401.05,0.21,13.8,26.4,138.12,28.99,24.61,36.33,0.04,-272.74,-272.74,-54,559,-942,24.3,2.0,-28.0,24.2,2.1,-27.6,5.73,2.30,-28.6,26.9
2012-03-31 01:34:00,0.0,1.9032,0.0010,401.10,0.24,13.6,22.8,138.12,28.99,24.61,36.33,0.04,-272.73,-272.74,-54,559,-942,24.3,2.0,-28.0,24.2,2.1,-27.7,5.73,2.44,-28.6,26.8
2012-03-31 01:35:00,0.0,1.9028,0.0010,401.00,0.21,12.5,22.7,138.12,28.99,24.61,36.34,0.04,-272.74,-272.74,-54,559,-943,24.3,2.0,-28.0,24.2,2.1,-27.7,5.73,2.49,-28.5,26.8
2012-03-31 01:36:00,0.0,1.9029,0.0010,401.20,0.25,16.1,26.3,138.12,28.98,24.62,36.32,0.04,-272.74,-272.74,-54,559,-942,24.3,2.0,-27.9,24.2,2.1,-27.6,5.73,2.33,-28.5,26.8
2012-03-31 01:37:00,0.0,1.9022,0.0010,401.06,0.25,15.1,22.5,138.12,28.98,24.62,36.34,0.04,-272.74,-272.74,-54,559,-942,24.3,2.0,-27.9,24.2,2.1,-27.6,5.73,2.33,-28.5,26.8
2012-03-31 01:38:00,0.0,1.9023,0.0010,400.99,0.24,13.0,21.2,138.12,28.98,24.62,36.33,0.04,-272.74,-272.74,-54,559,-942,24.3,2.0,-28.1,24.2,2.1,-27.7,5.73,2.49,-28.5,26.8
2012-03-31 01:39:00,0.0,1.9027,0.0012,401.03,0.22,7.9,16.2,138.12,28.97,24.62,36.33,0.04,-272.74,-272.74,-54,559,-942,24.3,2.0,-28.2,24.2,2.0,-27.8,5.73,2.43,-28.5,26.8
2012-03-31 01:40:00,0.0,1.9022,0.0010,401.07,0.24,19.4,26.3,138.12,28.97,24.62,36.33,0.04,-272.74,-272.74,-54,559,-943,24.2,2.0,-28.2,24.2,2.0,-28.0,5.73,2.30,-28.5,26.8
2012-03-31 01:41:00,0.0,1.9022,0.0011,401.08,0.20,15.6,27.5,138.12,28.97,24.62,36.33,0.04,-272.73,-272.74,-54,559,-942,24.3,1.9,-28.4,24.2,2.0,-28.0,5.73,2.39,-28.5,26.7
2012-03-31 01:42:00,0.0,1.9025,0.0011,401.05,0.22,12.1,22.7,138.12,28.97,24.62,36.33,0.04,-272.74,-272.73,-54,559,-942,24.3,1.9,-28.3,24.3,2.0,-27.9,5.73,2.50,-28.4,26.8
2012-03-31 01:43:00,0.0,1.9022,0.0011,401.12,0.25,15.7,21.9,138.12,28.96,24.62,36.32,0.04,-272.74,-272.73,-54,559,-942,24.3,2.0,-28.3,24.3,2.0,-28.0,5.73,2.37,-28.4,26.8
2012-03-31 01:44:00,0.0,1.9022,0.0010,401.04,0.26,12.7,22.0,138.12,28.96,24.62,36.34,0.04,-272.74,-272.73,-54,559,-942,24.3,1.9,-28.5,24.2,2.0,-28.1,5.73,2.30,-28.4,26.8
2012-03-31 01:45:00,0.0,1.9026,0.0010,401.08,0.21,15.5,23.3,138.12,28.96,24.62,36.33,0.04,-272.74,-272.74,-54,559,-942,24.3,1.9,-28.5,24.3,2.0,-28.2,5.73,2.46,-28.4,26.8
2012-03-31 01:46:00,0.0,1.9027,0.0010,401.01,0.22,18.1,27.0,138.12,28.96,24.62,36.33,0.04,-272.74,-272.74,-54,559,-942,24.3,1.9,-28.6,24.3,2.0,-28.2,5.73,2.47,-28.4,26.8
2012-03-31 01:47:00,0.0,1.9031,0.0011,401.09,0.19,14.4,24.0,138.12,28.96,24.62,36.33,0.04,-272.74,-272.74,-54,559,-942,24.3,1.9,-28.6,24.2,2.0,-28.2,5.73,2.31,-28.4,26.8
2012-03-31 01:48:00,0.0,1.9038,0.0011,401.12,0.30,17.3,21.8,138.12,28.96,24.62,36.33,0.04,-272.74,-272.74,-55,559,-942,24.3,1.9,-28.7,24.3,2.0,-28.2,5.73,2.35,-28.4,26.8
2012-03-31 01:49:00,0.0,1.9034,0.0011,401.10,0.23,16.0,25.2,138.12,28.96,24.62,36.33,0.04,-272.74,-272.74,-54,560,-942,24.3,1.9,-28.5,24.3,2.0,-28.2,5.73,2.49,-28.4,26.8
2012-03-31 01:50:00,0.0,1.9035,0.0012,401.14,0.22,16.9,23.1,138.12,28.95,24.61,36.33,0.04,-272.74,-272.74,-54,560,-942,24.3,2.0,-28.3,24.3,2.0,-28.0,5.73,2.42,-28.3,26.9
2012-03-31 01:51:00,0.0,1.9036,0.0010,401.19,0.22,17.5,24.3,138.12,28.95,24.62,36.33,0.04,-272.74,-272.74,-54,560,-942,24.3,2.0,-28.3,24.3,2.0,-27.9,5.73,2.29,-28.3,26.9
2012-03-31 01:52:00,0.0,1.9034,0.0011,401.14,0.23,19.2,21.8,138.12,28.95,24.62,36.33,0.04,-272.74,-272.74,-54,559,-942,24.3,2.0,-28.2,24.3,2.1,-27.8,5.73,2.41,-28.3,26.8
2012-03-31 01:53:00,0.0,1.9033,0.0008,401.17,0.20,19.9,26.8,138.12,28.95,24.62,36.33,0.04,-272.74,-272.74,-54,559,-942,24.3,2.0,-28.1,24.3,2.1,-27.7,5.73,2.50,-28.3,27.0
2012-03-31 01:54:00,0.0,1.9032,0.0010,401.10,0.23,17.2,23.7,138.12,28.95,24.62,36.33,0.04,-272.73,-272.73,-54,560,-942,24.3,2.0,-28.0,24.3,2.1,-27.6,5.73,2.34,-28.3,27.0
2012-03-31 01:55:00,0.0,1.9026,0.0011,401.13,0.23,24.9,27.6,138.12,28.95,24.62,36.33,0.04,-272.74,-272.74,-54,560,-942,24.3,2.0,-27.9,24.3,2.1,-27.5,5.73,2.32,-28.3,27.0
2012-03-31 01:56:00,0.0,1.9020,0.0011,401.07,0.22,19.7,23.2,138.12,28.95,24.62,36.33,0.04,-272.74,-272.74,-54,560,-942,24.3,2.0,-27.9,24.3,2.1,-27.5,5.73,2.47,-28.3,27.0
2012-03-31 01:57:00,0.0,1.9017,0.0011,401.06,0.22,27.1,32.6,138.12,28.95,24.61,36.33,0.04,-272.73,-272.74,-55,560,-942,24.3,2.0,-27.9,24.3,2.1,-27.5,5.73,2.45,-28.2,27.1
2012-03-31 01:58:00,0.0,1.9008,0.0010,401.09,0.21,24.9,25.6,138.12,28.95,24.62,36.33,0.04,-272.74,-272.74,-54,560,-942,24.3,2.0,-27.9,24.3,2.1,-27.5,5.73,2.30,-28.2,27.0
2012-03-31 01:59:00,0.0,1.9012,0.0009,400.99,0.22,19.2,26.6,138.12,28.95,24.62,36.33,0.04,-272.74,-272.74,-54,560,-942,24.3,2.0,-27.8,24.3,2.1,-27.5,5.73,2.39,-28.2,27.1
2012-03-31 02:00:00,0.0,1.9012,0.0010,401.06,0.20,25.3,28.8,138.12,28.95,24.62,36.33,0.04,-272.73,-272.74,-54,560,-942,24.3,2.0,-27.8,24.3,2.1,-27.4,5.73,2.50,-28.2,27.0
2012-03-31 02:01:00,0.0,1.9013,0.0010,401.01,0.22,20.8,23.3,138.11,28.94,24.62,36.33,0.04,-272.74,-272.74,-54,560,-942,24.3,2.1,-27.7,24.3,2.1,-27.4,5.73,2.36,-28.1,26.9
2012-03-31 02:02:00,0.0,1.9004,0.0009,400.99,0.19,23.0,29.3,138.12,28.94,24.62,36.33,0.04,-272.74,-272.74,-54,560,-943,24.3,2.1,-27.7,24.3,2.1,-27.3,5.73,2.30,-28.1,26.9
2012-03-31 02:03:00,0.0,1.9001,0.0012,400.97,0.20,25.7,29.8,138.12,28.94,24.62,36.33,0.04,-272.74,-272.74,-54,560,-942,24.3,2.1,-27.7,24.3,2.1,-27.3,5.73,2.46,-28.1,26.9
2012-03-31 02:04:00,0.0,1.9011,0.0011,401.02,0.25,24.6,30.3,138.11,28.94,24.62,36.33,0.04,-272.74,-272.73,-54,560,-943,24.3,2.1,-27.7,24.3,2.1,-27.4,5.73,2.46,-28.1,27.0
2012-03-31 02:05:00,0.0,1.9008,0.0009,400.98,0.20,18.1,25.2,138.11,28.94,24.62,36.33,0.04,-272.74,-272.74,-54,560,-943,24.3,2.1,-27.7,24.3,2.1,-27.3,5.73,2.30,-28.1,27.0
2012-03-31 02:06:00,0.0,1.9011,0.0011,400.96,0.18,29.7,34.5,138.11,28.94,24.62,36.34,0.04,-272.74,-272.74,-55,560,-942,24.3,2.1,-27.7,24.3,2.1,-27.3,5.73,2.38,-28.1,27.1
2012-03-31 02:07:00,0.0,1.9013,0.0009,400.97,0.21,28.6,31.9,138.11,28.94,24.62,36.34,0.04,-272.74,-272.74,-54,560,-943,24.3,2.1,-27.7,24.3,2.1,-27.3,5.73,2.51,-28.1,27.0
2012-03-31 02:08:00,0.0,1.9018,0.0009,401.01,0.21,23.2,29.1,138.12,28.94,24.61,36.33,0.04,-272.74,-272.74,-54,560,-942,24.3,2.0,-27.8,24.3,2.1,-27.5,5.73,2.35,-28.1,27.0
2012-03-31 02:09:00,0.0,1.9023,0.0010,401.12,0.22,27.1,27.7,138.11,28.94,24.62,36.33,0.04,-272.73,-272.74,-54,560,-942,24.3,2.0,-27.9,24.3,2.1,-27.5,5.73,2.31,-28.0,27.1
2012-03-31 02:10:00,0.0,1.9016,0.0009,400.97,0.21,26.1,33.2,138.11,28.94,24.62,36.34,0.04,-272.74,-272.74,-55,560,-942,24.4,2.0,-27.8,24.4,2.1,-27.5,5.73,2.48,-28.0,27.0
2012-03-31 02:11:00,0.0,1.9019,0.0013,401.03,0.23,25.9,31.2,138.11,28.94,24.62,36.33,0.04,-272.73,-272.73,-54,560,-942,24.4,2.0,-27.8,24.4,2.1,-27.5,5.73,2.44,-28.0,27.1
2012-03-31 02:12:00,0.0,1.9024,0.0011,401.10,0.21,29.1,33.6,138.11,28.94,24.62,36.33,0.04,-272.74,-272.74,-54,560,-943,24.4,2.0,-27.8,24.4,2.1,-27.5,5.73,2.29,-28.0,27.1
2012-03-31 02:13:00,0.0,1.9018,0.0011,401.07,0.24,25.9,27.3,138.11,28.94,24.61,36.33,0.04,-272.74,-272.74,-54,560,-942,24.4,2.0,-27.9,24.4,2.1,-27.4,5.73,2.41,-28.0,27.1
2012-03-31 02:14:00,0.0,1.9020,0.0010,401.03,0.24,36.8,34.2,138.11,28.94,24.62,36.33,0.04,-272.74,-272.73,-55,560,-943,24.4,2.0,-28.0,24.4,2.1,-27.7,5.73,2.49,-28.0,27.1
2012-03-31 02:15:00,0.0,1.9019,0.0009,401.04,0.22,24.8,26.9,138.11,28.94,24.62,36.33,0.04,-272.74,-272.74,-54,560,-942,24.4,2.0,-28.1,24.4,2.1,-27.7,5.73,2.32,-27.9,27.1
2012-03-31 02:16:00,0.0,1.9017,0.0011,401.06,0.23,27.7,28.8,138.11,28.95,24.62,36.33,0.04,-272.74,-272.74,-54,560,-943,24.4,2.0,-28.0,24.4,2.1,-27.6,5.73,2.34,-27.9,27.2
2012-03-31 02:17:00,0.0,1.9018,0.0009,401.01,0.21,28.5,31.9,138.11,28.95,24.62,36.34,0.04,-272.74,-272.74,-54,560,-942,24.4,2.0,-28.0,24.4,2.1,-27.7,5.73,2.50,-27.9,27.2
2012-03-31 02:18:00,0.0,1.9019,0.0012,401.06,0.23,31.1,32.8,138.11,28.95,24.62,36.33,0.04,-272.74,-272.73,-55,560,-942,24.4,2.0,-28.2,24.4,2.0,-27.8,5.73,2.39,-27.9,27.2